Flag for U.S.A. Weather past 2 weeks in Redmond, Washington, U.S.A.

Now
67 °F

Overcast.


Feels Like: 67 °F
Forecast: 59 / 66 °F
Wind: 6 mph from South

Location: Seattle Boeing Field

Current Time: Aug 29, 2014 at 1:38:38 PM

Latest Report: Aug 29, 2014 at 11:53 AM


Visibility: 10 mi

Pressure: 29.98 "Hg

Humidity: 57%

Dew point: 51 °F

Location of RedmondLocation

Historic Weather in Redmond — Graph

°F

Redmond temperature yesterday

Maximum temperature yesterday: 76 °F (at 5:53 PM)
Minimum temperature yesterday: 61 °F (at 5:53 AM)
Average temperature yesterday: 68 °F

Past Weeks' High & Low Weather Summary

 TemperatureHumidityPressure
High88 °F (Aug 26, 3:53 PM)87% (Aug 15, 6:53 AM)30.15 "Hg (Aug 15, 6:53 AM)
Low57 °F (Aug 21, 5:53 AM)23% (Aug 26, 5:53 PM)29.77 "Hg (Aug 19, 5:53 PM)
Average70 °F61%30.00 "Hg
* Reported Aug 14 11:53 AM — Aug 29 11:53 AM, Redmond, Weather by CustomWeather, © 2014

Note: Actual official high and low records may vary slightly from our data, if they occured in-between our weather recording intervals... More about our weather records

Advertising

Redmond weather history for previous 24 hours

 ConditionsComfort  
Time TempWeatherWind HumidityBarometerVisibility
11:53 AM
Aug 29
67 °FOvercast.6 mph57%29.98 "Hg10 mi
10:53 AM67 °FBroken clouds.8 mph59%29.99 "Hg10 mi
9:53 AM66 °FScattered clouds.7 mph63%29.98 "Hg10 mi
8:53 AM63 °FPartly sunny.7 mph75%29.98 "Hg10 mi
7:53 AM61 °FLow clouds.9 mph83%29.98 "Hg10 mi
6:53 AM62 °FMostly cloudy.6 mph78%29.98 "Hg10 mi
5:53 AM63 °FLow clouds.3 mph81%29.97 "Hg10 mi
4:53 AM63 °FLow clouds.6 mph84%29.98 "Hg10 mi
3:53 AM64 °FOvercast.6 mph81%29.97 "Hg10 mi
2:53 AM65 °FOvercast.No wind78%29.98 "Hg10 mi
1:53 AM65 °FPassing clouds.No wind78%29.98 "Hg10 mi
12:53 AM65 °FPassing clouds.3 mph78%30.00 "Hg10 mi
11:53 PM
Aug 28
66 °FPassing clouds.3 mph75%30.01 "Hg10 mi
10:53 PM68 °FPassing clouds.5 mph73%30.02 "Hg10 mi
9:53 PM70 °FClear.5 mph68%30.02 "Hg10 mi
8:53 PM72 °FBroken clouds.No wind64%30.02 "Hg10 mi
7:53 PM74 °FScattered clouds.No wind60%30.01 "Hg10 mi
6:53 PM76 °FPartly sunny.3 mph54%30.02 "Hg10 mi
5:53 PM76 °FPartly sunny.3 mph54%30.04 "Hg10 mi
4:53 PM75 °FPassing clouds.5 mph55%30.06 "Hg10 mi
3:53 PM75 °FPassing clouds.3 mph55%30.07 "Hg10 mi
3:00 PM73 °FScattered clouds.6 mph57%30.08 "Hg10 mi
1:53 PM69 °FMostly cloudy.7 mph68%30.10 "Hg10 mi
Weather by CustomWeather, © 2014

See weather overviewHow to use our weather pages